Погода в Камышине

Погода в Камышине : погода сейчас, прогноз погоды и архив. Всё, что Вы хотите узнать о погоде в Камышине!

Хотите узнать прогноз погоды в Камышине? Тогда Вам сюда: Погода в Камышине

Поиск расширенной информации на нашем сайте:

Другие новости

Новости СМИ2

Главная страница сайта

Новости сайта

02.10.2013

Напоминаем, что на нашем новом сайте вы можете получить высокодетализированные прогнозы погоды по пунктам России, СНГ и мира (включающие важные для авиации метеовеличины, такие как направление и скорость ветра, видимость, явления погоды, количество и форма облачности, нижняя и верхняя граница облачности), а также ознакомиться с разнообразными материалами по авиационной метеорологии и подборкой полезных ссылок на эту тему.

Сайт Метеоцентр.Азия посвящён разработке технологий оптимизации авиаметеорологического обслуживания, включая проектирование и перспективное создание нескольких автоматизированных авиаметеорологических систем:
- система выпуска высокодетальных прогностических карт явлений погоды для нижнего воздушного пространства по России и ближнему зарубежью;
- система верификации прогнозов TAF (выпускаемых синоптиками официальных АМСГ РФ и ближнего зарубежья) и AUTOTAF (выпускаемых сайтом Метеоцентр.Азия) - выявление ошибок, онлайн-сопоставление с фактической погодой METAR, автоматическое внесение коррективов в прогнозы при резком отклонении фактической погоды от прогноза, подсчёт оправдываемости прогнозов по элементам и в целом;
- система обработки, анализа и отображения авиаметеорологической информации для применения провайдерами метеорологической информации.

Рекомендуем: Навгеотех - геодезическое оборудование: GPS приемники, тахеометры, нивелиры, теодолиты, рулетки..

Погода в Камышине - сегодня

Время (UTC), дата Ветер
(°,м/с) 
Видим.   Явления Облачность Т
(°С)
Тd
(°С)
f(%) Тe
(°С)
Pmin
(гПа)
dP
(гПа)
Po
(мм)
O2
(г/м3)
Тmin Tmax R s Состояние
почвы
15 25.05.17 190 (Ю) 20000 м    8/1 1000 м верхняя 
[Cu hum|Ci fib]
+19.9 +4.3 36 +21  1017.6  -0.6  752  282    +22       
18 25.05.17 230 (ЮЗ) 20000 м    6/0 средняя, верхняя 
[Ac trans|Ci fib]
+15.4 +5.6 52 +16  1018.4  0.5  753  286           
21 25.05.17 240 (ЮЗ) 20000 м    5/0 средняя, верхняя 
[Ac trans|Ci fib]
+13.6 +3.8 51 +13  1017.9  -0.6  752  288           
00 26.05.17 260 (З) 20000 м    3/0 средняя, верхняя 
[Ac trans|Ci fib]
+13.1 +6.7 65 +13  1017  -0.8  752  288           
03 26.05.17 300 (СЗ) 10 км    6/0 средняя, верхняя 
[Ac cast|Ci fib]
+15.2 +8.7 65 +15  1016.4  -0.5  751  285  +12.4        сухая 
06 26.05.17 300 (СЗ) 20000 м    8/0 средняя, верхняя 
[Ac cast|Ci fib]
+19.1 +10.3 57 +22  1015.9  -0.2  751  281           
09 26.05.17 090 (В) 20000 м    9/4 1000 м средняя, верхняя 
[Cu med, cong|Ac trans|Ci fib]
+20.5 +10.8 54 +23  1015.2  -0.7  751  279           
12 26.05.17 340 (С) 20000 м  {гроза, ливн. осадки}  9/3 600 м кучево-дожд., средняя, верхняя 
[Cb calv|Ac trans|Ci fib]
+19.9 +12 60 +25  1013.8  -1.4  750  279           
18 26.05.17 310 (СЗ) 20000 м    9/6 600 м средняя 
[Sc|Ac trans]
+16.6 +10.3 66 +19  1013.2  0.5  749  283           
21 26.05.17 тихо ()   20000 м    3/0 средняя 
[Ac trans]
+15.1 +10.3 73 +17  1012  -1.3  748  284           
00 27.05.17 250 (З) 20000 м    4/0 средняя 
[Ac trans]
+13.2 +9.3 77 +13  1011.8  -0.3  748  286           
06 27.05.17 300 (СЗ) 20000 м    3/0 средняя 
[Ac trans]
+20.2 +10.9 55 +23  1011.3  -0.2  748  279           
09 27.05.17 200 (Ю) 20000 м    4/4 1000 м 
[Cu med, cong]
+24.2 +8.6 37 +24  1010.3  -0.7  747  275           
18 27.05.17 340 (С) 20000 м  {гроза, ливн. осадки}  10/0 средняя 
[Ac lent]
+17.1 +10.7 66 +20  1010.7  747  281           
21 27.05.17 310 (СЗ) 20000 м    8/0 средняя 
[Ac trans]
+13.6 +10.1 79 +15  1011.5  0.6  748  285           
00 28.05.17 330 (СЗ) 20000 м    6/0 средняя 
[Ac trans]
+12.7 +10.5 86 +14  1012.1  0.5  748  286           
06 28.05.17 350 (С) 20000 м    5/5 1000 м 
[Cu med, cong]
+15.9 +7 55 +16  1013.4  0.8  749  284           
09 28.05.17 080 (В) 20000 м    5/5 1000 м 
[Cu med, cong]
+17.4 +6.5 49 +18  1013  -0.3  749  283           
12 28.05.17 300 (СЗ) 20000 м    8/4 1000 м средняя 
[Sc|Ac cuf]
+19.3 -0.1 27 +20  1011.7  -1.1  748  281           
21 28.05.17 360 (С) 6-10{16}  20000 м    ясно 
+6.9 +2.1 71 +5  1017.2  3.7  752  295           
00 29.05.17 340 (С) 4{12}  20000 м    ясно 
+3.7 -0.4 75 +2  1019.9  2.5  753  300           
06 29.05.17 030 (СВ) 20000 м    4/0 верхняя 
[Ci fib]
+9.8 -4.9 35 +10  1022.2  0.9  755  294           
09 29.05.17 130 (ЮВ) 20000 м    ясно 
+12.5 -4.5 30 +13  1021.5  -0.5  755  291           
12 29.05.17 260 (З) 5{10}  20000 м    ясно 
+16.2 -4 25 +16  1019.4  -1.9  754  287           
18 29.05.17 230 (ЮЗ) 4{10}  20000 м    3/0 верхняя 
[Ci fib]
+12.2 +0.2 44 +12  1017.1  -0.6  752  290           
Время (UTC), дата Ветер
(°,м/с) 
Видим.   Явления Облачность Т
(°С)
Тd
(°С)
f(%) Тe
(°С)
Pmin
(гПа)
dP
(гПа)
Po
(мм)
O2
(г/м3)
Тmin Tmax R s Состояние
почвы

Для получения пояснительной информации подведите курсор к названию столбца.

ПОГОДА в Камышине - архив

Всё, что Вы хотите узнать о погоде в Камышине - удобно и подробно!

Выберите нужную дату (начиная с 1 января 2015* года) и нажмите кнопку "Найти".
Будут отображены архивные сводки погоды по пункту Камышин, начиная с указанной даты.


Отображать данные в формате CSV (для использования в таблицах Excel)


Внимание! Наш архив погоды предназначен исключительно для личного некоммерческого использования в познавательных целях. Если Вам необходимы официальные справки о состоянии погоды (для производственных, юридических, коммерческих и т.п. целей), обращайтесь в органы Росгидромета.

*Примечание: данная дата относится к архиву по метеостанциям СССР (Россия, СНГ, Балтия).
Архив по метеостанциям Зарубежной Европы и Азии (кроме Китая) хранится 10 дней, по другим регионам земного шара (Китай, Африка, Америка, Австралия, Океания) - 1 день.

Камышин - район местоположения метеостанции


Название, широта, долгота, высота метеостанции:
Камышин 50.1°ш. 45.4°д. 119 м над ур. моря [Российская Федерация]

Дополнительная информация

В oтличие oт бoльшинства пoгoдных сайтoв мы публикуем пoдрoбную метеoинфoрмацию в детальнoм прoфессиoнальнoм фoрмате.

Характеристики температуры и влажнoсти вoздуха измеряются на высoте 2 м в тени вдали oт зданий и деревьев.
Скoрoсть ветра измеряется на высoте 10 м (на урoвне рoста челoвека скoрoсть ветра ниже в 1.5-2 раза). Если метеoстанция нахoдится в гoрoде или в лесу, тo скoрoсть ветра занижена на 2-4 м/с пo сравнению с oткрытым местoм. Скoрoсть ветра над акватoриями крупных рек и oзёр, а также на вершинах хoлмoв на 2-5 м/с выше, чем в oбычных услoвиях.
Атмoсфернoе давление в разных тoчках местнoсти мoжет значительнo oтличаться oт давления на метеoстанции, в зависимoсти oт услoвий рельефа (при пoдъёме на 10 м давление пoнижается примернo на 1 мм рт.ст.).